Starlink 1457

operational
NORAD ID: 45674 Int'l Des: 2020-035 Owner: SPXS Country: US Constellation: starlink
LEOCIRCULARSTARLINK_TYPE

关于 Starlink 1457

正在加载描述...

实时位置

正在加载3D地球...

即将过境

高度历史

Altitude vs Time

uPlot chart will show altitude changes over time

两行轨道根数

1 45674U 20035T 25350.90526951 .00095055 00000-0 17358-2 0 9998
2 45674 53.0518 68.0037 0006619 345.8887 14.1935 15.48632090306379
Epoch: Dec 16, 2025 • Age: 9 hours

当前状态

高度 419.2 km
速度 7.66 km/s
星下点 -12.01°S, 133.48°W
发射日期 Jun 4, 2020
运行时间 5.5 years
类型 internet

技术详情

分类 Payload
质量 260.00 kg
干质量 248.00 kg
总质量 260.00 kg
长度 0.20 m
直径 2.80 m
跨度 9.00 m
形状 Box + pan
制造商 SPXS
平台类型 Starlink
阶段状态 In Orbit
所有者/国家 SPXS/US

大型星座

Loading constellations...